This is the latest recevied weather packets stored in our database for station/object IR4UCA. If no packets are shown the sender has not sent any weather packets the latest 10 day(s).
| Time | Temp. | Humidity | Pressure | Rain* | Wind** | Luminosity | Snow |
|---|---|---|---|---|---|---|---|
| 1777914583 | 24.44° C | 39% | 1014.6 hPa | 0 mm | - | - | - |
| 1777913983 | 24.44° C | 38% | 1014.6 hPa | 0 mm | - | - | - |
| 1777913384 | 24.44° C | 39% | 1014.5 hPa | 0 mm | - | - | - |
| 1777912784 | 25° C | 39% | 1014.6 hPa | 0 mm | - | - | - |
| 1777910984 | 25.56° C | 37% | 1014.8 hPa | 0 mm | - | - | - |
| 1777910383 | 25.56° C | 37% | 1014.9 hPa | 0 mm | - | - | - |
| 1777909783 | 25° C | 35% | 1014.9 hPa | 0 mm | - | - | - |
| 1777909183 | 25° C | 35% | 1015 hPa | 0 mm | - | - | - |
| 1777908583 | 25° C | 33% | 1015 hPa | 0 mm | - | - | - |
| 1777907984 | 25° C | 35% | 1015.1 hPa | 0 mm | - | - | - |
| 1777907383 | 25.56° C | 36% | 1015.2 hPa | 0 mm | - | - | - |
| 1777906784 | 25.56° C | 31% | 1015.2 hPa | 0 mm | - | - | - |
| 1777906185 | 26.11° C | 32% | 1015.1 hPa | 0 mm | - | - | - |
| 1777905583 | 25.56° C | 31% | 1015.2 hPa | 0 mm | - | - | - |
| 1777904984 | 25.56° C | 29% | 1015.3 hPa | 0 mm | - | - | - |
| 1777903783 | 26.11° C | 32% | 1015.3 hPa | 0 mm | - | - | - |
| 1777903183 | 25.56° C | 35% | 1015.4 hPa | 0 mm | - | - | - |
| 1777902584 | 24.44° C | 39% | 1015.4 hPa | 0 mm | - | - | - |
| 1777901984 | 24.44° C | 40% | 1015.5 hPa | 0 mm | - | - | - |
| 1777901383 | 24.44° C | 40% | 1015.5 hPa | 0 mm | - | - | - |
| 1777900184 | 23.89° C | 42% | 1015.9 hPa | 0 mm | - | - | - |
| 1777899584 | 23.89° C | 40% | 1016 hPa | 0 mm | - | - | - |
| 1777898984 | 24.44° C | 39% | 1016 hPa | 0 mm | - | - | - |
| 1777898383 | 25° C | 37% | 1016.1 hPa | 0 mm | - | - | - |
| 1777897784 | 25° C | 36% | 1016.1 hPa | 0 mm | - | - | - |
* Rain latest hour (hover to see other rain measurements)
** Current wind speed in m/s (hover to see current wind gust speed)